Helicity
74 103 131 179 179 169 164 151 144 121 100 89 94 83 81 71 65 45 59 71 82 89 82 68 65 55 53 53 33 -10 3 22
73 92 106 108 112 140 142 127 113 101 84 76 77 75 75 73 74 55 60 70 83 87 86 77 68 59 53 52 38 -5 8 18
70 78 101 101 98 103 105 96 91 81 67 64 67 46 49 67 54 84 64 73 76 86 82 75 70 64 58 48 26 8 12 6
68 79 86 95 96 89 74 58 41 36 43 35 32 36 40 47 72 78 59 75 69 79 81 76 49 51 48 38 8 24 4 7
74 89 96 79 78 92 69 67 53 23 34 42 20 16 31 27 56 59 50 66 62 71 81 52 33 35 51 35 28 20 6 3
48 86 109 80 79 96 100 74 63 39 26 27 29 19 31 26 40 56 51 63 57 56 53 40 48 31 44 40 37 17 25 11
26 66 102 97 82 75 85 77 66 38 30 24 12 13 29 34 31 52 39 65 48 54 43 44 54 52 45 39 41 35 35 22
12 32 84 110 91 77 80 86 76 35 37 20 25 12 27 30 35 39 51 79 44 36 39 43 43 52 60 50 38 41 38 34
23 10 56 116 104 96 84 83 77 79 58 25 18 19 37 47 40 39 59 70 51 40 52 47 49 48 48 61 43 44 42 34
89 34 42 76 109 112 92 82 70 66 48 32 49 43 29 45 67 60 65 102 69 60 67 68 55 51 40 47 50 42 47 39
108 64 40 61 99 147 115 85 63 53 62 44 38 89 72 60 77 82 100 105 106 91 86 84 82 73 54 54 57 57 49 33
136 114 87 77 140 215 182 127 82 74 61 48 37 65 108 105 90 102 115 108 126 143 142 110 102 101 86 81 72 59 60 54
113 169 120 148 150 172 193 170 132 110 106 84 83 78 106 154 117 109 125 120 153 164 180 150 148 121 193 138 104 80 75 64
126 158 124 163 141 212 228 212 134 110 116 90 89 127 158 170 124 109 112 135 135 178 184 234 210 208 197 179 136 102 99 90
118 155 124 167 127 163 223 184 146 140 99 111 103 129 152 178 127 115 111 114 130 160 170 167 210 210 145 172 176 133 109 86
144 164 145 135 153 148 188 250 202 149 136 110 122 114 134 128 120 151 158 167 147 128 125 134 122 157 193 135 108 190 203 103
188 145 170 118 165 164 179 194 189 116 115 95 107 132 125 161 187 217 239 232 194 110 141 107 91 101 145 177 150 160 195 150
168 202 185 136 152 186 151 137 131 145 165 181 145 149 175 235 345 456 380 337 255 114 59 119 118 84 100 166 212 220 168 187
226 220 353 388 385 389 288 128 184 168 143 167 162 180 222 275 284 346 383 293 236 248 279 206 121 107 78 187 198 191 158 143
295 337 436 536 480 484 499 466 506 401 333 259 185 189 141 124 152 176 176 222 247 269 260 81 107 164 163 184 202 208 205 169
Wind_Speed
8 13 13 14 16 18 19 20 23 23 23 26 25 25 24 25 26 28 28 27 26 27 29 30 29 29 30 29 29 27 26 26
10 12 11 11 11 15 17 18 21 23 23 24 23 24 22 22 24 25 27 26 25 25 27 28 27 27 27 27 27 26 25 24
17 14 11 10 9 11 15 17 19 21 21 21 20 18 19 19 22 23 25 24 24 23 24 26 24 25 25 25 25 24 23 23
25 20 16 13 9 10 15 16 18 19 22 22 23 17 17 16 13 18 21 22 22 20 20 22 23 21 21 21 21 21 21 21
33 28 23 18 13 10 14 16 17 19 23 24 23 16 14 14 8 14 16 17 17 17 16 18 19 17 18 19 18 18 19 19
40 35 30 25 17 16 15 16 20 19 21 24 20 16 13 14 10 16 15 15 15 16 14 14 12 13 14 15 16 16 16 16
49 43 38 31 27 20 20 20 20 20 20 21 21 18 15 15 10 9 11 9 11 13 12 9 9 10 11 11 13 13 14 14
54 50 45 38 33 28 24 23 20 20 19 21 23 17 13 12 10 10 5 3 7 7 7 6 6 9 9 9 9 10 11 12
58 56 53 47 42 35 29 26 24 24 21 22 23 20 15 13 11 9 6 4 4 2 2 3 6 10 10 10 9 10 11 12
63 57 56 55 50 44 35 31 29 28 25 23 25 24 19 17 14 13 8 7 6 4 2 1 4 7 10 10 9 12 12 14
73 62 62 60 56 51 45 40 35 32 30 28 27 28 25 21 19 16 13 11 10 8 7 6 6 8 7 11 12 17 20 19
82 72 68 63 62 55 54 49 45 36 31 32 31 32 29 25 22 21 19 15 14 15 15 13 12 12 13 13 14 18 18 17
93 83 74 70 67 63 60 58 49 43 35 36 36 35 34 31 28 26 25 22 21 20 18 19 21 20 25 32 32 22 18 17
104 97 80 77 74 69 62 56 51 49 47 41 40 40 39 38 34 33 30 30 29 28 25 32 29 23 32 34 45 44 30 19
108 103 89 82 80 72 67 57 57 56 54 47 38 38 38 40 39 37 34 34 36 35 35 37 40 36 29 34 43 45 37 25
111 104 96 87 82 78 73 69 63 53 52 49 44 41 41 39 41 41 39 36 36 37 38 40 42 44 44 35 38 57 34 36
102 105 100 88 84 81 75 70 63 56 57 57 52 46 42 42 43 40 37 34 35 41 44 47 52 55 47 46 35 42 50 48
89 97 96 92 82 79 75 71 63 57 56 51 50 46 44 40 37 38 35 32 31 42 52 54 54 63 66 44 39 43 33 33
49 57 63 60 63 63 67 66 60 55 55 54 51 46 43 37 35 38 38 47 48 48 41 44 53 61 62 54 49 48 49 34
29 41 47 45 45 47 51 55 49 45 48 45 48 46 42 37 38 44 48 43 33 30 27 27 49 47 49 40 47 50 45 38
Wind_Direction
182 163 154 146 141 139 136 135 135 135 135 135 131 129 125 121 116 115 109 102 95 93 93 93 86 85 83 81 79 82 63 56
220 185 171 161 153 149 147 145 144 142 142 140 137 134 129 125 119 117 115 107 101 96 96 98 89 86 85 81 78 79 72 60
239 222 209 188 170 165 159 156 152 147 146 145 141 136 134 128 127 121 118 112 108 99 99 100 92 86 84 84 89 92 65 73
245 236 227 219 200 179 171 163 159 157 152 151 148 145 143 137 124 124 120 113 111 100 97 96 100 93 94 91 106 60 89 72
249 245 239 229 226 211 186 173 168 168 161 156 156 154 150 147 129 129 119 115 110 106 95 102 113 90 87 99 86 84 84 92
248 243 238 232 230 218 214 192 175 176 174 167 166 165 165 161 148 142 133 127 119 122 108 106 84 90 81 85 85 91 71 78
250 242 238 235 234 231 216 204 192 183 183 181 175 174 173 168 165 153 143 127 129 127 116 101 81 67 80 84 91 87 58 62
255 243 238 236 235 236 225 221 209 203 200 195 187 187 195 191 186 173 177 146 134 125 114 83 50 26 56 56 66 62 50 40
256 247 239 235 235 235 231 227 229 221 223 214 205 203 210 216 219 207 221 209 170 144 77 55 15 355 14 33 32 19 15 16
258 247 239 234 237 238 235 235 230 235 225 220 215 217 223 230 238 234 234 253 214 204 223 296 333 341 348 3 24 8 3 357
259 247 241 235 233 237 240 241 235 232 238 233 222 226 229 239 244 249 242 258 254 241 247 260 283 310 329 336 349 344 340 344
259 250 241 235 233 233 239 242 243 238 227 233 236 233 227 232 250 257 245 245 258 262 267 274 280 293 308 317 325 328 337 337
256 251 238 237 230 226 230 235 240 243 240 241 244 244 238 236 252 258 254 251 259 261 262 267 282 292 303 304 307 313 314 320
253 250 239 234 235 228 227 230 237 242 248 246 244 247 248 247 250 262 262 265 267 269 265 280 281 278 292 300 299 302 302 295
251 247 240 233 235 231 230 233 241 243 247 246 237 242 247 251 253 261 265 267 273 274 273 276 280 281 276 295 298 299 312 313
247 244 239 234 231 230 223 225 232 237 242 248 248 244 248 250 254 259 263 267 273 277 277 276 278 280 282 278 283 291 302 313
246 239 238 233 230 230 226 228 235 242 246 249 249 252 250 254 255 254 258 265 275 283 287 280 276 277 280 285 278 286 288 294
241 235 235 232 227 226 227 228 234 239 241 244 251 255 255 252 250 253 257 254 277 290 292 283 277 279 276 278 282 285 278 280
235 228 224 224 222 224 227 229 231 236 242 245 251 255 257 250 248 252 254 270 279 257 264 266 269 274 277 276 280 281 285 282
237 225 216 218 220 222 227 230 233 236 247 252 255 258 263 261 258 264 271 272 267 278 273 231 264 270 271 265 278 280 280 279